• In France
  • List of Countries
  • For 7 days
  • Water Temperature
  • Satellite Maps
  • Weather Map
  • Weather Widgets
  • user-avatar
    Login

    Hourly Weather Ch'ŏngjin

    Today, 18 December, Monday

    Time Temperature Precipitation Wind Pressure Humidity
    00:00 -10°C° 0 mm 2 mps 767 mmHg 55%
    01:00 -10°C° 0 mm 2 mps 767 mmHg 56%
    02:00 -10°C° 0 mm 2 mps 767 mmHg 57%
    03:00 -10°C° 0 mm 2 mps 766 mmHg 56%
    04:00 -10°C° 0 mm 2 mps 766 mmHg 58%
    05:00 -8°C° 0 mm 1 mps 766 mmHg 60%
    06:00 -8°C° 0 mm 1 mps 766 mmHg 62%
    07:00 -8°C° 0 mm 1 mps 766 mmHg 62%
    08:00 -8°C° 0 mm 2 mps 765 mmHg 62%
    09:00 -8°C° 0 mm 2 mps 765 mmHg 62%
    10:00 -6°C° 0 mm 2 mps 765 mmHg 57%
    11:00 -5°C° 0 mm 3 mps 764 mmHg 52%
    12:00 -2°C° 0 mm 3 mps 764 mmHg 47%
    13:00 -2°C° 0 mm 3 mps 764 mmHg 47%
    14:00 -2°C° 0 mm 3 mps 763 mmHg 47%
    15:00 -4°C° 0 mm 3 mps 763 mmHg 48%
    16:00 -5°C° 0 mm 4 mps 764 mmHg 53%
    17:00 -7°C° 0 mm 4 mps 764 mmHg 58%
    18:00 -8°C° 0 mm 4 mps 765 mmHg 63%
    19:00 -9°C° 0 mm 4 mps 765 mmHg 65%
    20:00 -10°C° 0 mm 4 mps 765 mmHg 67%
    21:00 -11°C° 0 mm 5 mps 766 mmHg 69%
    22:00 -11°C° 0 mm 5 mps 766 mmHg 70%
    23:00 -11°C° 0 mm 5 mps 766 mmHg 70%

    Tomorrow, 19 December, Tuesday

    Time Temperature Precipitation Wind Pressure Humidity
    00:00 -12°C° 0 mm 5 mps 767 mmHg 71%
    01:00 -12°C° 0 mm 5 mps 767 mmHg 71%
    02:00 -12°C° 0 mm 5 mps 767 mmHg 70%
    03:00 -14°C° 0 mm 6 mps 767 mmHg 70%
    04:00 -14°C° 0 mm 6 mps 768 mmHg 69%
    05:00 -14°C° 0 mm 6 mps 768 mmHg 68%
    06:00 -15°C° 0 mm 6 mps 768 mmHg 67%
    07:00 -14°C° 0 mm 6 mps 768 mmHg 65%
    08:00 -13°C° 0 mm 5 mps 769 mmHg 62%
    09:00 -13°C° 0 mm 5 mps 769 mmHg 60%
    10:00 -12°C° 0 mm 5 mps 769 mmHg 55%
    11:00 -11°C° 0 mm 5 mps 769 mmHg 50%
    12:00 -10°C° 0 mm 5 mps 769 mmHg 45%
    13:00 -8°C° 0 mm 4 mps 769 mmHg 44%
    14:00 -8°C° 0 mm 4 mps 769 mmHg 44%
    15:00 -8°C° 0 mm 4 mps 768 mmHg 44%
    16:00 -9°C° 0 mm 4 mps 769 mmHg 49%
    17:00 -9°C° 0 mm 3 mps 769 mmHg 54%
    18:00 -12°C° 0 mm 3 mps 770 mmHg 60%
    19:00 -12°C° 0 mm 3 mps 770 mmHg 61%
    20:00 -12°C° 0 mm 3 mps 770 mmHg 61%
    21:00 -13°C° 0 mm 3 mps 770 mmHg 62%
    22:00 -13°C° 0 mm 3 mps 771 mmHg 61%
    23:00 -13°C° 0 mm 3 mps 771 mmHg 59%

    Day after tomorrow, 20 December, Wednesday

    Time Temperature Precipitation Wind Pressure Humidity
    00:00 -13°C° 0 mm 3 mps 771 mmHg 58%
    01:00 -13°C° 0 mm 3 mps 771 mmHg 56%
    02:00 -13°C° 0 mm 3 mps 771 mmHg 55%
    03:00 -13°C° 0 mm 3 mps 771 mmHg 54%
    04:00 -12°C° 0 mm 2 mps 771 mmHg 54%
    05:00 -10°C° 0 mm 2 mps 771 mmHg 54%
    06:00 -10°C° 0 mm 2 mps 771 mmHg 55%
    07:00 -10°C° 0 mm 2 mps 771 mmHg 55%
    08:00 -9°C° 0 mm 2 mps 771 mmHg 55%
    09:00 -8°C° 0 mm 2 mps 771 mmHg 56%
    10:00 -6°C° 0 mm 2 mps 770 mmHg 52%
    11:00 -4°C° 0 mm 2 mps 770 mmHg 49%
    12:00 0°C° 0 mm 1 mps 770 mmHg 45%
    13:00 -2°C° 0 mm 2 mps 769 mmHg 48%
    14:00 -2°C° 0 mm 2 mps 769 mmHg 51%
    15:00 -2°C° 0 mm 2 mps 768 mmHg 55%
    16:00 -3°C° 0 mm 2 mps 769 mmHg 65%
    17:00 -4°C° 0 mm 2 mps 769 mmHg 75%
    18:00 -5°C° 0 mm 2 mps 769 mmHg 85%
    19:00 -6°C° 0.1 mm 2 mps 769 mmHg 85%
    20:00 -6°C° 0.1 mm 2 mps 770 mmHg 84%
    21:00 -6°C° 0.1 mm 2 mps 770 mmHg 84%
    22:00 -6°C° 0 mm 2 mps 770 mmHg 81%
    23:00 -7°C° 0 mm 2 mps 770 mmHg 79%

    21 December, Thursday

    Time Temperature Precipitation Wind Pressure Humidity
    00:00 -7°C° 0 mm 2 mps 770 mmHg 76%
    01:00 -7°C° 0 mm 2 mps 770 mmHg 72%
    02:00 -7°C° 0 mm 2 mps 770 mmHg 69%
    03:00 -7°C° 0 mm 1 mps 770 mmHg 65%
    04:00 -6°C° 0 mm 1 mps 769 mmHg 63%
    05:00 -6°C° 0 mm 1 mps 769 mmHg 61%
    06:00 -6°C° 0 mm 1 mps 769 mmHg 59%
    07:00 -6°C° 0 mm 1 mps 769 mmHg 55%
    08:00 -4°C° 0 mm 1 mps 769 mmHg 52%
    09:00 -3°C° 0 mm 1 mps 769 mmHg 49%
    10:00 -1°C° 0 mm 1 mps 769 mmHg 47%
    11:00 -1°C° 0 mm 2 mps 768 mmHg 45%
    12:00 +3°C° 0 mm 2 mps 767 mmHg 42%
    13:00 +3°C° 0 mm 2 mps 767 mmHg 44%
    14:00 +3°C° 0 mm 2 mps 767 mmHg 46%
    15:00 +3°C° 0 mm 2 mps 766 mmHg 48%
    16:00 +2°C° 0 mm 2 mps 767 mmHg 55%
    17:00 +1°C° 0 mm 1 mps 767 mmHg 61%
    18:00 -1°C° 0 mm 1 mps 768 mmHg 67%
    19:00 -1°C° 0 mm 1 mps 768 mmHg 66%
    20:00 -1°C° 0 mm 1 mps 768 mmHg 65%
    21:00 -1°C° 0 mm 1 mps 769 mmHg 64%
    22:00 -2°C° 0 mm 1 mps 769 mmHg 62%
    23:00 -4°C° 0 mm 2 mps 769 mmHg 59%

    22 December, Friday

    Time Temperature Precipitation Wind Pressure Humidity
    00:00 -4°C° 0 mm 2 mps 769 mmHg 57%
    01:00 -4°C° 0 mm 2 mps 769 mmHg 56%
    02:00 -4°C° 0 mm 2 mps 768 mmHg 54%
    03:00 -4°C° 0 mm 2 mps 768 mmHg 52%
    04:00 -4°C° 0 mm 2 mps 768 mmHg 50%
    05:00 -4°C° 0 mm 2 mps 768 mmHg 49%
    06:00 -4°C° 0 mm 2 mps 768 mmHg 47%
    07:00 -4°C° 0 mm 2 mps 768 mmHg 45%
    08:00 -3°C° 0 mm 2 mps 768 mmHg 43%
    09:00 -3°C° 0 mm 2 mps 768 mmHg 41%
    10:00 +1°C° 0 mm 1 mps 767 mmHg 39%
    11:00 +4°C° 0 mm 1 mps 767 mmHg 37%
    12:00 +6°C° 0 mm 1 mps 766 mmHg 34%
    13:00 +6°C° 0 mm 1 mps 766 mmHg 39%
    14:00 +6°C° 0 mm 1 mps 765 mmHg 43%
    15:00 +6°C° 0 mm 1 mps 764 mmHg 47%
    16:00 +4°C° 0 mm 1 mps 765 mmHg 56%
    17:00 +3°C° 0 mm 1 mps 765 mmHg 64%
    18:00 +1°C° 0 mm 1 mps 765 mmHg 72%
    19:00 +1°C° 0 mm 1 mps 765 mmHg 72%
    20:00 -2°C° 0 mm 2 mps 765 mmHg 73%
    21:00 -2°C° 0 mm 2 mps 765 mmHg 74%
    22:00 -2°C° 0 mm 2 mps 765 mmHg 74%
    23:00 -2°C° 0 mm 2 mps 765 mmHg 74%

    23 December, Saturday

    Time Temperature Precipitation Wind Pressure Humidity
    00:00 -2°C° 0 mm 2 mps 765 mmHg 74%
    01:00 -2°C° 0 mm 2 mps 765 mmHg 75%
    02:00 -2°C° 0 mm 2 mps 765 mmHg 76%
    03:00 -3°C° 0 mm 2 mps 765 mmHg 76%
    04:00 -3°C° 0 mm 2 mps 765 mmHg 76%
    05:00 -3°C° 0 mm 2 mps 765 mmHg 77%
    06:00 -3°C° 0 mm 2 mps 764 mmHg 77%
    07:00 -3°C° 0 mm 2 mps 765 mmHg 74%
    08:00 -3°C° 0 mm 2 mps 765 mmHg 72%
    09:00 -3°C° 0 mm 2 mps 765 mmHg 69%
    10:00 -1°C° 0 mm 2 mps 765 mmHg 62%
    11:00 +3°C° 0 mm 1 mps 764 mmHg 55%
    12:00 +5°C° 0 mm 1 mps 764 mmHg 48%
    13:00 +5°C° 0 mm 1 mps 763 mmHg 51%
    14:00 +4°C° 0 mm 2 mps 763 mmHg 53%
    15:00 +4°C° 0 mm 2 mps 763 mmHg 56%
    16:00 +3°C° 0 mm 2 mps 763 mmHg 65%
    17:00 +2°C° 0 mm 2 mps 763 mmHg 75%
    18:00 -1°C° 0 mm 2 mps 763 mmHg 84%
    19:00 -1°C° 0.1 mm 2 mps 763 mmHg 85%
    20:00 -1°C° 0.1 mm 3 mps 763 mmHg 86%
    21:00 -1°C° 0.1 mm 3 mps 763 mmHg 87%
    22:00 -1°C° 0.2 mm 3 mps 762 mmHg 88%
    23:00 -1°C° 0.2 mm 3 mps 762 mmHg 89%
    Show more